Regional Weather Roundup
Issued by NWS

Home | Current Version | Previous Version | Text Only | Print | Product List | Glossary On
Versions: 1 2 3 4 5 6 7 8 9 10 11 12 13 14 15 16 17 18 19 20 21 22 23 24 25 26 27 28 29 30 31 32 33 34 35 36 37 38 39 40 41 42 43 44 45 46
000
ASUS42 KFFC 280503
RWRGA
WEATHER ROUNDUP FOR GEORGIA
NATIONAL WEATHER SERVICE PEACHTREE CITY GA
1200 AM EST SUN DEC 28 2014

NOTE: "FAIR" INDICATES FEW OR NO CLOUDS BELOW 12,000 FEET WITH NO
SIGNIFICANT WEATHER AND/OR OBSTRUCTIONS TO VISIBILITY.

* = USE WITH CAUTION. THE STATIONS MARKED WITH AN ASTERISK MAY NOT
REPORT WEATHER SUCH AS PRECIPITATION, FOG, OR THUNDER AND ARE NOT
QUALITY CONTROLLED BY NWS.

THE REMARK "TC" DENOTES TEMPERATURE READING IN DEGREES CELSIUS.

GAZ001>058-280600-
NORTH GEORGIA

CITY           SKY/WX    TMP DP  RH WIND       PRES   REMARKS
ATLANTA        CLOUDY    54  51  90 SE5       30.15F
ATHENS         CLOUDY    51  48  89 E5        30.18F
CHAMBLEE       CLOUDY    51  50  96 CALM      30.15F FOG
PEACHTREE CITY CLOUDY    53  51  93 CALM      30.17F
ROME           RAIN      51  50  96 CALM      30.15F FOG
WEST ATLANTA   CLOUDY    52  50  93 CALM      30.16S
GAINESVILLE    LGT RAIN  50  47  89 CALM      30.20F
CARTERSVILLE   LGT RAIN  51  49  92 CALM      30.18F


CITY           SKY/WX    TMP DP  RH WIND       PRES   REMARKS
DALTON*        LGT RAIN  52  50  93 CALM      30.16F
MARIETTA       CLOUDY    52  52 100 SE3       30.16S
$$

GAZ059>098-102>109-280600-
CENTRAL GEORGIA

CITY           SKY/WX    TMP DP  RH WIND       PRES   REMARKS
AUGUSTA-BUSH   LGT RAIN  51  50  96 SE5       30.19F
AUGUSTA-DANIEL LGT RAIN  56  49  77 SE5       30.20F
COLUMBUS       LGT RAIN  53  51  93 VRB3      30.16F
MACON          CLOUDY    56  56 100 CALM      30.19F FOG
ROBINS AFB     DRIZZLE   56  56  99 SE3       30.19F


CITY           SKY/WX    TMP DP  RH WIND       PRES   REMARKS
LAGRANGE*      LGT RAIN  56  55  97 CALM      30.16F
SYLVANIA*      CLOUDY    57  55  91 CALM      30.22S
MILLEDGEVILLE* RAIN      54  54 100 CALM      30.20F
$$

GAZ099>101-110>166-280600-
SOUTH GEORGIA

CITY           SKY/WX    TMP DP  RH WIND       PRES   REMARKS
SAVANNAH       PTCLDY    51  48  89 CALM      30.22F
VALDOSTA       PTCLDY    54  53  97 CALM      30.21F
ALMA           PTCLDY    56  54  93 CALM      30.21F
ST SIMONS      CLEAR     59  56  89 CALM      30.21F
FT STEWART     CLOUDY    51  49  93 CALM      30.21F
ALBANY         CLOUDY    60  55  83 E3        30.19F
HUNTER AFB     MOCLDY    51  49  94 N2        30.20F
MOODY AFB      PTCLDY    58  57  95 E5        30.20F
BRUNSWICK      CLEAR     54  52  94 CALM      30.21F


CITY           SKY/WX    TMP DP  RH WIND       PRES   REMARKS
BAINBRIDGE*    PTCLDY    59  55  88 SE3       30.19F
MOULTRIE*      PTCLDY    61  55  82 CALM      30.20F
VIDALIA*       CLOUDY    59  55  88 CALM      30.21F
WAYCROSS*      PTCLDY    58  57  97 CALM      30.22F
DOUGLAS*       CLOUDY    61  57  88 CALM      30.23F
$$


USA.gov is the U.S. government's official web portal to all federal, state and local government web resources and services.